Tracking 30995 objects as of 5-Jul-2025
HD Live streaming from Space Station
objects crossing your sky now

THORAD AGENA D DEB

Track THORAD AGENA D DEB now!
10-day predictions


NORAD ID: 4651
Int'l Code: 1970-025AK
Perigee: 863.6 km
Apogee: 925.1 km
Inclination: 100.1 °
Period: 102.7 minutes
Semi major axis: 7265 km
RCS: 0.047 m2 (small)
Launch date: April 8, 1970
Source: United States (US)
Launch site: AIR FORCE WESTERN TEST RANGE (AFWTR)

Note: This is SATELLITE DEBRIS
Your satellite tracking list
GEESAT 3-02
Track 1 satellite(s)




NASA's NSSDC Master Catalog

Two Line Element Set (TLE):
1 04651U 70025AK  25186.19387680  .00001214  00000-0  82656-3 0  9992
2 04651 100.1316  96.1881 0042314 295.6538  64.0256 14.01904328787080
Source of the keplerian elements: AFSPC